• en France
  • Liste des pays
  • À 7 jours
  • Température de l'eau
  • Carte satellitaire
  • Carte météo
  • Widgets météo
  • user-avatar
    Se connecter

    Météo par heure à Brisbane

    Ce jour, 15 Octobre, Lundi

    Heure Température Précipitation Vent Pression Humidité
    00:00 +19°C° 0.8 mm 6 m/s 761 mmHg 90%
    01:00 +18°C° 0.8 mm 7 m/s 761 mmHg 90%
    02:00 +18°C° 0.4 mm 7 m/s 760 mmHg 89%
    03:00 +18°C° 0.4 mm 7 m/s 760 mmHg 89%
    04:00 +19°C° 0 mm 5 m/s 760 mmHg 90%
    05:00 +19°C° 1.1 mm 5 m/s 760 mmHg 90%
    06:00 +19°C° 1.1 mm 5 m/s 760 mmHg 91%
    07:00 +19°C° 1.1 mm 5 m/s 760 mmHg 91%
    08:00 +19°C° 1 mm 6 m/s 761 mmHg 90%
    09:00 +18°C° 1 mm 7 m/s 761 mmHg 89%
    10:00 +20°C° 0 mm 4 m/s 761 mmHg 89%
    11:00 +21°C° 1.1 mm 5 m/s 761 mmHg 88%
    12:00 +21°C° 1.1 mm 6 m/s 760 mmHg 87%
    13:00 +21°C° 1.1 mm 7 m/s 760 mmHg 85%
    14:00 +21°C° 0.7 mm 7 m/s 760 mmHg 85%
    15:00 +21°C° 0.7 mm 7 m/s 760 mmHg 85%
    16:00 +21°C° 0 mm 7 m/s 760 mmHg 85%
    17:00 +21°C° 0.8 mm 7 m/s 760 mmHg 87%
    18:00 +20°C° 0.8 mm 7 m/s 760 mmHg 88%
    19:00 +20°C° 0.8 mm 6 m/s 761 mmHg 90%
    20:00 +20°C° 0.7 mm 6 m/s 761 mmHg 90%
    21:00 +20°C° 0.7 mm 6 m/s 761 mmHg 90%
    22:00 +20°C° 0.7 mm 6 m/s 761 mmHg 90%
    23:00 +20°C° 0.4 mm 6 m/s 761 mmHg 90%

    Demain, 16 Octobre, Mardi

    Heure Température Précipitation Vent Pression Humidité
    00:00 +20°C° 0.4 mm 6 m/s 761 mmHg 90%
    01:00 +20°C° 0.4 mm 5 m/s 760 mmHg 91%
    02:00 +20°C° 0.2 mm 5 m/s 760 mmHg 91%
    03:00 +20°C° 0.2 mm 5 m/s 760 mmHg 91%
    04:00 +20°C° 0.2 mm 5 m/s 760 mmHg 92%
    05:00 +21°C° 0.3 mm 5 m/s 760 mmHg 90%
    06:00 +21°C° 0.3 mm 5 m/s 760 mmHg 89%
    07:00 +21°C° 0.3 mm 5 m/s 761 mmHg 88%
    08:00 +22°C° 0.3 mm 5 m/s 761 mmHg 83%
    09:00 +23°C° 0.3 mm 5 m/s 761 mmHg 79%
    10:00 +25°C° 0.3 mm 5 m/s 761 mmHg 74%
    11:00 +26°C° 0.3 mm 5 m/s 761 mmHg 71%
    12:00 +27°C° 0.3 mm 5 m/s 760 mmHg 68%
    13:00 +27°C° 0.3 mm 5 m/s 760 mmHg 65%
    14:00 +27°C° 0.3 mm 4 m/s 760 mmHg 68%
    15:00 +26°C° 0.3 mm 4 m/s 760 mmHg 71%
    16:00 +26°C° 0.3 mm 4 m/s 759 mmHg 74%
    17:00 +23°C° 0.2 mm 4 m/s 760 mmHg 79%
    18:00 +22°C° 0.2 mm 4 m/s 760 mmHg 85%
    19:00 +21°C° 0.2 mm 3 m/s 761 mmHg 90%
    20:00 +21°C° 0.2 mm 3 m/s 761 mmHg 91%
    21:00 +21°C° 0.2 mm 3 m/s 761 mmHg 92%
    22:00 +20°C° 0.2 mm 3 m/s 761 mmHg 93%
    23:00 +20°C° 0.2 mm 3 m/s 761 mmHg 93%

    Après-demain, 17 Octobre, Mercredi

    Heure Température Précipitation Vent Pression Humidité
    00:00 +20°C° 0.2 mm 3 m/s 760 mmHg 93%
    01:00 +20°C° 0.2 mm 3 m/s 760 mmHg 94%
    02:00 +20°C° 0.2 mm 3 m/s 760 mmHg 94%
    03:00 +20°C° 0.2 mm 2 m/s 760 mmHg 94%
    04:00 +20°C° 0.2 mm 2 m/s 760 mmHg 94%
    05:00 +21°C° 0.1 mm 2 m/s 760 mmHg 93%
    06:00 +21°C° 0.1 mm 3 m/s 761 mmHg 91%
    07:00 +22°C° 0.1 mm 3 m/s 761 mmHg 89%
    08:00 +24°C° 0.2 mm 3 m/s 761 mmHg 83%
    09:00 +25°C° 0.2 mm 3 m/s 761 mmHg 77%
    10:00 +26°C° 0.2 mm 3 m/s 761 mmHg 71%
    11:00 +26°C° 0.2 mm 4 m/s 760 mmHg 69%
    12:00 +27°C° 0.2 mm 4 m/s 760 mmHg 67%
    13:00 +27°C° 0.2 mm 4 m/s 759 mmHg 65%
    14:00 +27°C° 0.4 mm 4 m/s 759 mmHg 69%
    15:00 +26°C° 0.4 mm 4 m/s 759 mmHg 72%
    16:00 +25°C° 0.4 mm 4 m/s 759 mmHg 76%
    17:00 +23°C° 0.1 mm 4 m/s 759 mmHg 80%
    18:00 +22°C° 0.1 mm 4 m/s 760 mmHg 85%
    19:00 +21°C° 0.1 mm 3 m/s 760 mmHg 89%
    20:00 +21°C° 0.1 mm 3 m/s 760 mmHg 90%
    21:00 +21°C° 0.1 mm 3 m/s 760 mmHg 91%
    22:00 +20°C° 0.1 mm 3 m/s 761 mmHg 92%
    23:00 +20°C° 0.2 mm 3 m/s 760 mmHg 92%

    18 Octobre, Jeudi

    Heure Température Précipitation Vent Pression Humidité
    00:00 +20°C° 0.2 mm 3 m/s 760 mmHg 92%
    01:00 +20°C° 0.2 mm 2 m/s 760 mmHg 92%
    02:00 +20°C° 0.2 mm 2 m/s 760 mmHg 92%
    03:00 +20°C° 0.2 mm 2 m/s 760 mmHg 92%
    04:00 +20°C° 0.2 mm 2 m/s 760 mmHg 93%
    05:00 +20°C° 0.1 mm 2 m/s 760 mmHg 91%
    06:00 +21°C° 0.1 mm 2 m/s 761 mmHg 90%
    07:00 +21°C° 0.1 mm 2 m/s 761 mmHg 88%
    08:00 +23°C° 0.1 mm 2 m/s 761 mmHg 84%
    09:00 +24°C° 0.1 mm 3 m/s 761 mmHg 80%
    10:00 +25°C° 0.1 mm 3 m/s 761 mmHg 75%
    11:00 +26°C° 0.2 mm 3 m/s 761 mmHg 73%
    12:00 +26°C° 0.2 mm 3 m/s 760 mmHg 70%
    13:00 +27°C° 0.2 mm 4 m/s 760 mmHg 67%
    14:00 +26°C° 0.1 mm 4 m/s 760 mmHg 68%
    15:00 +26°C° 0.1 mm 4 m/s 759 mmHg 70%
    16:00 +26°C° 0.1 mm 4 m/s 759 mmHg 71%
    17:00 +25°C° 0 mm 4 m/s 760 mmHg 76%
    18:00 +24°C° 0 mm 3 m/s 761 mmHg 81%
    19:00 +21°C° 0 mm 3 m/s 761 mmHg 86%
    20:00 +21°C° 0 mm 3 m/s 762 mmHg 88%
    21:00 +21°C° 0 mm 2 m/s 762 mmHg 89%
    22:00 +21°C° 0 mm 2 m/s 762 mmHg 91%
    23:00 +21°C° 0 mm 2 m/s 762 mmHg 91%

    19 Octobre, Vendredi

    Heure Température Précipitation Vent Pression Humidité
    00:00 +21°C° 0 mm 2 m/s 761 mmHg 92%
    01:00 +21°C° 0 mm 2 m/s 761 mmHg 92%
    02:00 +21°C° 0 mm 1 m/s 761 mmHg 93%
    03:00 +21°C° 0 mm 1 m/s 761 mmHg 93%
    04:00 +21°C° 0 mm 1 m/s 761 mmHg 94%
    05:00 +22°C° 0 mm 1 m/s 761 mmHg 92%
    06:00 +22°C° 0 mm 1 m/s 762 mmHg 89%
    07:00 +23°C° 0 mm 1 m/s 762 mmHg 87%
    08:00 +25°C° 0 mm 1 m/s 762 mmHg 77%
    09:00 +27°C° 0 mm 2 m/s 762 mmHg 66%
    10:00 +29°C° 0 mm 2 m/s 762 mmHg 56%
    11:00 +30°C° 0.1 mm 3 m/s 761 mmHg 55%
    12:00 +31°C° 0.1 mm 3 m/s 760 mmHg 54%
    13:00 +32°C° 0.1 mm 4 m/s 760 mmHg 53%
    14:00 +30°C° 0.1 mm 4 m/s 759 mmHg 56%
    15:00 +30°C° 0.1 mm 4 m/s 759 mmHg 60%
    16:00 +29°C° 0.1 mm 5 m/s 759 mmHg 64%
    17:00 +27°C° 0 mm 4 m/s 760 mmHg 72%
    18:00 +26°C° 0 mm 4 m/s 760 mmHg 79%
    19:00 +23°C° 0 mm 4 m/s 761 mmHg 87%
    20:00 +23°C° 0 mm 4 m/s 761 mmHg 89%
    21:00 +22°C° 0 mm 3 m/s 761 mmHg 91%
    22:00 +22°C° 0 mm 3 m/s 761 mmHg 93%
    23:00 +22°C° 0 mm 3 m/s 761 mmHg 93%

    20 Octobre, Samedi

    Heure Température Précipitation Vent Pression Humidité
    00:00 +22°C° 0 mm 3 m/s 761 mmHg 93%
    01:00 +22°C° 0 mm 3 m/s 760 mmHg 94%
    02:00 +21°C° 0 mm 2 m/s 760 mmHg 94%
    03:00 +21°C° 0 mm 2 m/s 760 mmHg 94%
    04:00 +21°C° 0 mm 2 m/s 760 mmHg 95%
    05:00 +23°C° 0 mm 2 m/s 761 mmHg 91%
    06:00 +23°C° 0 mm 2 m/s 761 mmHg 86%
    07:00 +24°C° 0 mm 2 m/s 762 mmHg 82%
    08:00 +26°C° 0 mm 2 m/s 762 mmHg 72%
    09:00 +29°C° 0 mm 3 m/s 761 mmHg 62%
    10:00 +31°C° 0 mm 3 m/s 761 mmHg 52%
    11:00 +33°C° 0 mm 4 m/s 761 mmHg 49%
    12:00 +34°C° 0 mm 4 m/s 760 mmHg 45%
    13:00 +35°C° 0 mm 4 m/s 759 mmHg 42%
    14:00 +34°C° 0.1 mm 4 m/s 759 mmHg 47%
    15:00 +32°C° 0.1 mm 4 m/s 759 mmHg 52%
    16:00 +30°C° 0.1 mm 4 m/s 759 mmHg 57%
    17:00 +29°C° 0.7 mm 4 m/s 759 mmHg 66%
    18:00 +27°C° 0.7 mm 4 m/s 760 mmHg 75%
    19:00 +25°C° 0.7 mm 3 m/s 760 mmHg 84%
    20:00 +25°C° 3.5 mm 3 m/s 761 mmHg 85%
    21:00 +25°C° 3.5 mm 2 m/s 761 mmHg 87%
    22:00 +24°C° 3.5 mm 2 m/s 761 mmHg 88%
    23:00 +24°C° 2.5 mm 2 m/s 761 mmHg 90%
    Voir plus